Вернуться в каталог

COSMOS 970 DEB

АктивенLEO
NORAD 64984·DEBRIS·🇷🇺 Russia

Запущен Dec 21, 1977 с Baikonur Cosmodrome

Loading…

Ближайшие Пролёты (ближайшие 24 часа)

TLE

СвежийSource: Space-Track

Эпоха: Sep 14, 2026, 14:07 UTC

1 64984U 77121CV  26257.58877736  .00000023  00000-0  12249-3 0  9998
2 64984  65.8263 219.1002 0128410 236.9398 121.9273 13.62788492336337

Отслеживайте COSMOS 970 DEB в реальном времени с AllMySat

Download on the App Store